Hourly Data Report for November 08, 2004

TORONTO CITY
ONTARIO

43°40'00.000" N
79°24'00.000" W
112.50 m
6158355
71508
XTO

Download Data

Hourly Data (November 2004)
Hourly Data Report for November 8, 2004
TIME
LST
Temp Definition
°C
Dew Point Definition
°C
Rel Hum Definition
%
Precip. Amount Definition
mm

Wind Dir Definition
10's deg

Wind Spd Definition
km/h
Visibility Definition
km
Stn Press Definition
kPa
Hmdx Definition


Wind Chill Definition


Weather Definition


00:00 3.8 1.0 82   LegendMM LegendMM LegendMM 100.28     LegendNANA
01:00 3.8 0.0 76   LegendMM LegendMM LegendMM 100.30     LegendNANA
02:00 3.1 -0.5 77   LegendMM LegendMM LegendMM 100.31     LegendNANA
03:00 2.6 -0.5 80   LegendMM LegendMM LegendMM 100.37     LegendNANA
04:00 2.6 -1.3 75   LegendMM LegendMM LegendMM 100.43     LegendNANA
05:00 2.1 -2.2 73   LegendMM LegendMM LegendMM 100.48     LegendNANA
06:00 1.8 -2.5 73   LegendMM LegendMM LegendMM 100.55     LegendNANA
07:00 1.4 -3.4 70   LegendMM LegendMM LegendMM 100.65     LegendNANA
08:00 1.8 -3.9 66   LegendMM LegendMM LegendMM 100.75     LegendNANA
09:00 2.6 -5.1 57   LegendMM LegendMM LegendMM 100.88     LegendNANA
10:00 3.2 -4.0 59   LegendMM LegendMM LegendMM 100.97     LegendNANA
11:00 4.7 -5.0 49   LegendMM LegendMM LegendMM 100.98     LegendNANA
12:00 4.6 -4.7 51   LegendMM LegendMM LegendMM 100.97     LegendNANA
13:00 4.7 -4.2 52   LegendMM LegendMM LegendMM 100.97     LegendNANA
14:00 4.8 -5.4 48   LegendMM LegendMM LegendMM 100.94     LegendNANA
15:00 3.2 -3.0 64   LegendMM LegendMM LegendMM 101.00     LegendNANA
16:00 2.6 -3.0 67   LegendMM LegendMM LegendMM 101.06     LegendNANA
17:00 2.3 -3.4 66   LegendMM LegendMM LegendMM 101.09     LegendNANA
18:00 2.2 -5.1 58   LegendMM LegendMM LegendMM 101.20     LegendNANA
19:00 1.7 -5.9 57   LegendMM LegendMM LegendMM 101.28     LegendNANA
20:00 1.0 -6.0 59   LegendMM LegendMM LegendMM 101.28     LegendNANA
21:00 0.3 -5.7 64   LegendMM LegendMM LegendMM 101.37     LegendNANA
22:00 -0.3 -5.2 69   LegendMM LegendMM LegendMM 101.40     LegendNANA
23:00 -1.1 -4.9 75   LegendMM LegendMM LegendMM 101.42     LegendNANA

Notes on Data Quality.

Legend

  • E = Estimated
  • M = Missing
  • NA = Not Available*
  • [empty] = Indicates an unobserved value
Date modified: